Location: Cosy Dell
(34.2789°N, 117.4537°W)
Time: 12:30:23
(UTC+00:00)

Cosmos 1464 Rocket - Pass Details

Date: 14 July 2020
Orbit: 951 x 1002 km, 82.9° (Epoch: 08 August)

Event Time Altitude Azimuth Distance (km) Brightness Sun altitude
Exits shadow 10:43:00 22° 171° (S) 2,015 5.3 -21.5°
Maximum altitude 10:47:12 68° 93° (E) 1,071 4.3 -20.9°
Drops below altitude 10° 10:53:31 10° 12° (NNE) 2,772 7.2 -20.0°
Sets 10:56:04 0° 10° (N) 3,720 8.0 -19.6°
